Fort Bragg, NC

5:36 AM EST on November 25, 2017 (GMT -0500)
Simmons Army Air Field

Weather History for KFBG - November, 2013

Change the Weather History Date:

Friday, November 8, 2013

  Actual Average Record
Temperature  
Mean Temperature 48 °F -  
Max Temperature 59 °F 63 °F 80 °F (2000)
Min Temperature 36 °F 43 °F 32 °F (1998)
Degree Days  
Heating Degree Days 17    
Moisture  
Dew Point 31 °F    
Average Humidity 60    
Maximum Humidity 98    
Minimum Humidity 27    
Precipitation  
Precipitation 0.00 in - - ()
Sea Level Pressure  
Sea Level Pressure 30.26 in    
Wind  
Wind Speed 6 mph (NNW)    
Max Wind Speed 14 mph    
Max Gust Speed 25 mph    
Visibility 10 miles    
Events      
Averages and records for this station are not official NWS values.
T = Trace of Precipitation, MM = Missing Value Source: NWS Daily Summary

Daily Weather History Graph

Daily Weather History Graph

Search for Another Location

Airport or City:

Trip Planner

Search our weather history database for the weather conditions in past years. The results will help you decide how hot, cold, wet, or windy it might be!

Date:

Astronomy

Nov. 08, 2013 Rise Set
Actual Time 6:43 AM EST 5:14 PM EST
Civil Twilight 6:17 AM EST 5:41 PM EST
Nautical Twilight 5:46 AM EST 6:11 PM EST
Astronomical Twilight 5:17 AM EST 6:41 PM EST
Moon 11:38 AM EST (11/8) 10:32 PM EST (11/8)
Length of Visible Light 11h 24m
Length of Day
10h 30m
Waxing Crescent, 33% of the Moon is Illuminated
Nov 8
Waxing Crescent
Nov 10
First Quarter
Nov 17
Full
Nov 25
Last Quarter
Dec 2
New

Hourly Weather History & Observations

Time (EST) Temp. Windchill Dew Point Humidity Pressure Visibility Wind Dir Wind Speed Gust Speed Precip Events Conditions
12:58 AM 47.5 °F - 33.1 °F 57% 30.13 in 10.0 mi North 8.1 mph - N/A   Clear
1:58 AM 46.4 °F 42.4 °F 32.7 °F 59% 30.15 in 10.0 mi NNW 8.1 mph - N/A   Clear
2:58 AM 45.3 °F 41.6 °F 32.4 °F 61% 30.18 in 10.0 mi North 6.9 mph - N/A   Clear
3:58 AM 43.7 °F 40.3 °F 32.4 °F 64% 30.20 in 10.0 mi North 5.8 mph - N/A   Clear
4:58 AM 42.4 °F 40.7 °F 32.2 °F 67% 30.22 in 10.0 mi NNE 3.5 mph - N/A   Clear
5:58 AM 40.3 °F - 32.4 °F 73% 30.24 in 10.0 mi North 2.3 mph - N/A   Clear
6:58 AM 38.5 °F - 34.2 °F 84% 30.26 in 10.0 mi NNW 2.3 mph - N/A   Clear
7:58 AM 42.8 °F 41.1 °F 34.5 °F 73% 30.28 in 10.0 mi North 3.5 mph - N/A   Clear
8:58 AM 48.2 °F - 29.8 °F 49% 30.30 in 10.0 mi North 5.8 mph - N/A   Clear
9:58 AM 51.6 °F - 27.7 °F 40% 30.30 in 10.0 mi NNW 12.7 mph 25.3 mph N/A   Clear
10:58 AM 54.7 °F - 26.4 °F 34% 30.29 in 10.0 mi North 12.7 mph - N/A   Clear
11:58 AM 57.2 °F - 25.7 °F 30% 30.27 in 10.0 mi North 9.2 mph - N/A   Clear
12:58 PM 58.5 °F - 25.0 °F 28% 30.24 in 10.0 mi NW 13.8 mph - N/A   Clear
1:58 PM 59.5 °F - 25.0 °F 27% 30.23 in 10.0 mi NW 9.2 mph - N/A   Clear
2:58 PM 59.4 °F - 24.8 °F 27% 30.23 in 10.0 mi NNW 8.1 mph - N/A   Clear
3:58 PM 58.6 °F - 25.0 °F 28% 30.24 in 10.0 mi NW 6.9 mph - N/A   Clear
4:58 PM 55.4 °F - 24.8 °F 31% 30.25 in 10.0 mi North 5.8 mph - N/A   Clear
5:58 PM 49.5 °F - 30.6 °F 48% 30.27 in 10.0 mi North 2.3 mph - N/A   Clear
6:58 PM 43.7 °F - 37.4 °F 78% 30.30 in 10.0 mi Calm Calm - N/A   Clear
7:58 PM 39.7 °F - 39.0 °F 97% 30.30 in 10.0 mi NW 2.3 mph - N/A   Clear
8:58 PM 38.8 °F 36.5 °F 37.2 °F 94% 30.32 in 10.0 mi NNW 3.5 mph - N/A   Clear
9:58 PM 37.9 °F 34.4 °F 37.0 °F 97% 30.33 in 10.0 mi NNW 4.6 mph - N/A   Clear
10:58 PM 38.7 °F - 35.6 °F 89% 30.33 in 10.0 mi Calm Calm - N/A   Clear
11:58 PM 36.9 °F - 36.3 °F 98% 30.33 in 10.0 mi North 2.3 mph - N/A   Clear